星链-5767 (STARLINK-5767 )

导读 | 星芒AI

STARLINK-5767 是 SpaceX 星链计划中的一颗低轨通信卫星,属于该系列的第 5767 号卫星。它主要用于提供全球范围内的高速互联网服务,特别是在偏远和网络覆盖不足的地区。该卫星采用先进的推进和通信技术,具备自动避撞功能,以确保在拥挤的近地轨道中安全运行。作为星链星座的一部分,STARLINK-5767 有助于提升全球互联网接入的普及率和稳定性。

基本信息
目录编号:
55586
目录名称:
STARLINK-5767
国际标识:
2023-020T
轨道中心:
EARTH
卫星名称:
星链-5767
卫星全名:
星链-5767 (STARLINK-5767 )
卫星状态:
在轨 (已飞行996 天)
发射日期:
2023-02-12 UTC
国别 :
美国 (US)
星等 :
--
轨道信息
数据来源 国际轨道数据
星历时间: 2025-11-03T17:39:07+0800
1天前
查看轨道信息
半长轴: 6937.225km
偏心率: 0.0001287
轨道倾角: 43.007°
近地点辐角 267.868°
升交点赤经 330.746°
平近点角 92.202°
近地点: 558.197km
远地点: 559.983km
周期: 95.838分钟
每日圈数: 15.025334
详细信息
固有亮度:
5
最大亮度:
2.5
卫星平台:
Starlink v1.5
覆盖范围:
全球
运营商:
太空探索技术公司
运营商所在国:
美国
制造商(研发单位):
太空探索技术公司
制造商所在国:
美国
使用方式:
暂无
卫星简介
星链(Starlink)计划是由太空探索技术公司(SpaceX)提出的一个巨型低轨卫星互联网星座项目,计划在2019年至2024年间在太空搭建由约1.2万颗卫星组成的“星链”网络,其中1584颗将部署在地球上空550千米处的近地轨道,并从2020年开始工作。该卫星仍在工作。
2D轨道图
3D轨道图
轨道高度分析图
轨道倾角分析图
轨道综合分析图
查看轨道综合分析图